Date,TemperatureHighF,TemperatureAvgF,TemperatureLowF,DewpointHighF,DewpointAvgF,DewpointLowF,HumidityHigh,HumidityAvg,HumidityLow,PressureMaxIn,PressureMinIn,WindSpeedMaxMPH,WindSpeedAvgMPH,GustSpeedMaxMPH,PrecipitationSumIn
2013-1-1,32,24,10,28,16,0,87,66,44,29.77,29.52,40,8,40,0.00
2013-1-2,16,9,3,4,0,-6,72,61,48,29.94,29.72,46,12,54,0.00
2013-1-3,18,10,1,8,1,-6,74,63,52,30.04,29.88,30,1,30,0.00
2013-1-4,73,29,13,41,20,4,84,69,25,29.92,29.67,17,2,19,1.04
2013-1-5,34,27,15,28,16,4,81,60,39,30.28,29.65,37,8,37,0.00
2013-1-6,28,23,13,28,20,4,97,87,65,30.25,29.87,11,2,11,0.00
2013-1-7,23,16,10,21,12,4,89,76,58,30.41,29.95,22,5,23,0.00
2013-1-8,41,36,16,32,27,11,82,69,56,30.36,30.14,30,7,30,0.04
2013-1-9,43,36,28,38,31,23,87,79,69,30.43,29.79,28,4,28,0.01
2013-1-10,41,37,30,32,26,21,76,63,51,30.51,29.80,43,12,43,0.01
2013-1-11,34,30,25,26,19,16,73,62,47,30.55,30.27,18,4,20,0.00
2013-1-12,43,38,33,40,33,24,89,79,70,30.32,30.09,13,2,13,0.00
2013-1-13,50,44,41,49,44,39,100,97,89,30.17,29.93,25,3,27,0.00
2013-1-14,53,47,37,51,42,24,100,85,56,30.21,29.84,30,8,30,0.00
2013-1-15,37,33,29,26,22,16,77,63,52,30.34,30.16,17,4,18,0.00
2013-1-16,37,33,29,36,28,16,100,84,54,30.30,29.73,24,6,24,0.34
2013-1-17,40,32,13,40,24,-6,99,72,32,30.12,29.69,28,9,28,0.03
2013-1-18,17,11,5,4,-3,-6,63,48,37,30.38,30.08,30,8,30,0.00
2013-1-19,39,30,16,33,25,0,99,80,44,30.37,29.91,24,3,24,0.09
2013-1-20,48,41,24,41,31,8,95,69,40,29.95,29.43,38,8,38,0.01
2013-1-21,24,18,13,16,3,0,86,46,33,30.03,29.75,30,6,32,0.00
2013-1-22,17,12,7,16,2,-6,90,61,43,29.94,29.73,24,7,24,0.00
2013-1-23,8,2,-2,-6,-12,-13,56,46,35,30.02,29.88,27,8,27,0.00
2013-1-24,10,3,-3,0,-10,-13,61,50,35,30.00,29.77,30,10,30,0.00
2013-1-25,19,10,2,4,-2,-6,66,55,39,30.12,29.96,28,9,28,0.00
2013-1-26,17,12,8,4,0,-6,65,53,39,30.06,29.88,34,10,34,0.00
2013-1-27,22,14,8,8,3,0,65,55,47,30.35,30.00,29,9,29,0.00
2013-1-28,25,19,10,21,4,0,81,49,27,30.39,30.05,17,4,17,0.00
2013-1-29,35,28,19,28,19,14,84,69,55,30.25,30.05,14,2,14,0.00
2013-1-30,56,46,34,55,44,28,99,94,75,30.21,29.47,41,13,42,0.21
2013-1-31,56,47,33,55,42,16,99,81,48,29.51,28.85,50,13,50,0.32
2013-2-1,33,24,14,18,8,4,63,46,37,29.97,29.35,28,9,30,0.00
2013-2-2,24,18,10,21,6,0,81,57,38,30.20,29.93,26,4,26,0.00
2013-2-3,28,23,20,23,19,16,95,84,74,30.09,29.61,20,6,21,0.00
2013-2-4,27,21,14,16,9,-6,84,59,34,29.79,29.50,30,10,30,0.00
2013-2-5,22,15,10,8,-2,-6,56,43,31,30.05,29.74,22,5,22,0.00
2013-2-6,34,24,15,29,15,0,96,68,38,30.21,29.90,29,4,29,0.06
2013-2-7,17,10,6,4,-5,-13,57,44,33,30.61,30.17,28,8,28,0.00
2013-2-8,19,12,4,18,8,-6,94,76,45,30.61,29.89,33,7,33,0.05
2013-2-9,18,15,11,16,13,11,94,87,79,30.00,29.57,51,17,51,0.21
2013-2-10,32,22,16,14,9,4,84,55,37,30.35,29.95,35,12,36,0.00
2013-2-11,44,31,17,44,26,4,100,80,40,30.34,29.55,30,5,30,0.41
2013-2-12,41,38,34,41,33,29,100,84,66,29.74,29.46,19,5,19,0.03
2013-2-13,41,36,32,29,27,24,87,69,52,29.83,29.67,17,4,17,0.00
2013-2-14,38,33,30,28,22,18,81,64,46,30.02,29.69,20,6,20,0.00
2013-2-15,43,42,36,39,36,32,88,81,67,30.04,29.92,26,9,29,0.00
2013-2-16,42,33,28,39,32,26,100,94,82,29.96,29.71,22,8,22,0.00
2013-2-17,27,23,19,28,21,14,97,89,71,29.74,28.89,48,17,48,0.11
2013-2-18,28,21,15,14,7,4,74,50,40,29.88,29.19,39,12,39,0.00
2013-2-19,41,31,21,40,17,4,98,55,33,30.10,29.70,25,6,27,0.06
2013-2-20,45,37,29,45,31,18,100,78,56,29.75,29.36,36,8,36,0.49
2013-2-21,34,28,24,31,21,14,97,72,59,30.09,29.53,30,9,30,0.00
2013-2-22,38,32,26,28,23,21,79,68,48,30.39,30.05,26,6,26,0.00
2013-2-23,32,30,26,28,25,21,90,83,69,30.39,30.05,17,6,18,0.00
2013-2-24,33,31,28,29,27,23,98,86,78,30.09,29.77,24,7,24,0.00
2013-2-25,39,28,23,23,18,8,81,63,26,30.24,29.84,17,5,17,0.00
2013-2-26,44,32,23,26,22,8,88,66,45,30.40,30.19,15,2,15,0.00
2013-2-27,38,34,27,33,30,26,100,84,69,30.31,29.76,34,8,34,0.01
2013-2-28,39,36,33,39,36,33,100,100,97,29.82,29.49,28,9,28,0.63
2013-3-1,34,32,30,35,32,29,100,98,93,29.63,29.47,20,7,20,0.04
2013-3-2,36,34,32,36,33,31,100,96,90,29.62,29.53,24,10,24,0.06
2013-3-3,42,37,34,38,36,35,100,95,76,29.60,29.43,14,5,14,0.03
2013-3-4,36,34,32,35,33,31,100,97,91,29.65,29.39,17,6,18,0.13
2013-3-5,43,37,34,37,35,33,99,91,76,30.16,29.60,21,6,21,0.02
2013-3-6,37,35,33,35,30,26,96,84,71,30.31,30.12,28,9,28,0.01
2013-3-7,37,34,32,28,27,24,79,72,62,30.27,30.06,32,11,32,0.00
2013-3-8,45,36,30,28,25,23,80,66,42,30.23,30.03,28,10,30,0.00
2013-3-9,40,33,28,28,25,23,83,72,54,30.41,30.16,24,7,24,0.00
2013-3-10,34,31,28,31,26,23,88,81,72,30.46,30.28,13,4,16,0.00
2013-3-11,43,39,34,39,35,31,97,86,76,30.36,30.19,18,5,18,0.00
2013-3-12,49,45,40,47,42,38,100,92,81,30.24,29.85,31,10,34,0.27
2013-3-13,49,45,37,49,44,31,100,97,77,29.90,29.60,40,8,40,1.36
2013-3-14,43,36,27,31,27,18,97,70,43,29.73,29.58,19,5,19,0.00
2013-3-15,32,24,19,21,14,11,85,67,40,29.75,29.58,28,10,28,0.00
2013-3-18,32,28,18,11,4,0,49,32,25,30.42,30.27,25,6,25,0.00
2013-3-19,30,27,25,28,21,8,100,79,37,30.32,29.62,32,9,33,0.00
2013-3-20,33,27,19,29,22,16,99,82,67,29.71,29.50,30,7,30,0.00
2013-3-21,38,32,27,29,23,16,93,69,42,29.81,29.56,18,4,18,0.00
2013-3-22,40,32,24,29,20,14,93,64,36,29.61,29.51,20,6,20,0.00
2013-3-23,39,33,26,26,21,18,72,61,45,29.60,29.38,28,9,28,0.00
2013-3-24,42,37,32,31,26,24,75,64,50,29.78,29.52,24,8,24,0.00
2013-3-25,41,36,29,32,29,26,95,76,58,29.78,29.58,18,4,18,0.00
2013-3-26,45,37,30,32,27,23,79,66,46,29.70,29.49,26,8,26,0.00
2013-3-27,39,36,34,38,34,28,97,90,70,29.86,29.62,20,7,21,0.14
2013-3-28,47,40,35,36,33,29,90,74,52,29.96,29.81,17,6,17,0.00
2013-3-29,53,45,39,38,34,31,86,66,47,30.01,29.90,13,4,15,0.00
2013-3-30,52,43,35,33,27,16,81,55,24,30.09,29.95,15,4,15,0.00
2013-3-31,51,42,35,38,22,14,91,47,25,30.16,29.91,22,5,22,0.00
2013-4-1,46,42,36,45,40,32,100,92,72,29.95,29.46,32,8,36,1.15
2013-4-2,36,32,28,32,15,8,87,49,31,29.80,29.59,28,7,28,0.01
2013-4-3,40,33,28,18,15,11,68,47,35,29.97,29.72,31,8,31,0.00
2013-4-4,47,37,30,32,17,8,67,43,20,30.18,29.91,28,8,28,0.00
2013-4-5,48,43,37,35,31,26,77,63,42,29.98,29.64,28,10,30,0.00
2013-4-6,38,32,28,28,13,4,68,43,23,30.36,29.72,37,12,37,0.00
2013-4-7,42,35,26,38,22,8,84,59,38,30.37,29.92,36,8,36,0.01
2013-4-8,54,47,40,41,37,33,91,70,48,30.18,29.87,38,8,38,0.00
2013-4-9,41,39,37,40,38,32,100,93,75,30.20,29.91,18,3,19,0.20
2013-4-10,53,44,38,45,42,39,100,91,70,30.02,29.88,16,3,18,0.05
2013-4-11,47,42,36,44,25,16,94,52,30,30.21,29.85,23,7,23,0.01
2013-4-12,38,34,32,35,25,16,98,69,42,30.31,29.93,23,7,25,0.21
2013-4-13,41,37,33,38,36,33,100,93,85,29.98,29.76,18,5,19,0.14
2013-4-14,44,40,37,42,39,36,100,94,88,30.19,29.90,18,3,19,0.09
2013-4-15,46,40,36,39,37,35,100,89,73,30.48,30.14,19,4,19,0.00
2013-4-16,48,43,37,47,40,35,96,87,68,30.47,29.94,44,9,44,0.23
2013-4-17,55,49,44,48,34,23,95,58,36,30.39,29.91,34,10,37,0.02
2013-4-18,46,40,34,38,28,18,84,61,40,30.53,30.20,23,6,25,0.00
2013-4-19,64,56,46,59,51,31,98,86,51,30.23,29.72,42,11,43,0.00
2013-4-20,58,52,45,58,47,31,100,84,57,30.16,29.61,46,9,46,0.27
2013-4-21,48,42,35,31,24,18,68,49,32,30.73,30.09,25,7,25,0.00
2013-4-22,43,39,33,36,28,18,90,64,44,30.87,30.68,21,5,21,0.00
2013-4-23,42,38,33,42,36,31,99,89,78,30.72,30.23,19,5,19,0.14
2013-4-24,50,45,42,50,45,42,100,100,99,30.25,29.76,16,4,17,1.19
2013-4-25,61,52,44,51,44,32,100,76,42,30.32,29.82,36,7,40,0.10
2013-4-26,52,45,38,37,32,29,83,60,46,30.49,30.28,22,4,22,0.00
2013-4-27,61,47,34,37,30,26,95,55,30,30.50,30.28,16,3,16,0.00
2013-4-28,58,47,39,42,38,32,91,73,51,30.41,30.26,19,4,19,0.00
2013-4-29,63,51,39,40,35,26,95,60,24,30.36,30.24,17,4,18,0.00
2013-4-30,67,52,38,42,34,24,92,56,22,30.42,30.27,17,4,17,0.00
2013-5-1,69,52,39,43,35,18,89,58,22,30.52,30.38,17,3,17,0.00
2013-5-2,56,48,42,43,38,18,90,69,24,30.58,30.43,19,5,19,0.00
2013-5-3,57,48,41,42,39,37,87,71,53,30.61,30.39,18,5,18,0.00
2013-5-4,51,45,40,39,36,32,92,70,48,30.46,30.33,20,5,22,0.00
2013-5-5,61,49,38,43,37,35,95,67,40,30.39,30.25,16,4,16,0.00
2013-5-6,61,50,42,45,40,36,99,73,52,30.35,30.19,19,3,19,0.00
2013-5-7,70,52,43,54,47,43,100,85,45,30.24,30.12,20,3,20,0.00
2013-5-8,64,50,44,54,49,44,100,95,68,30.33,30.18,18,5,18,0.00
2013-5-9,54,50,48,54,50,48,100,100,98,30.22,29.94,15,5,15,0.42
2013-5-10,66,53,48,58,52,48,100,96,73,30.04,29.90,19,3,21,0.00
2013-5-11,62,53,45,60,52,45,100,96,85,30.03,29.74,29,8,29,0.16
2013-5-12,60,55,49,60,55,48,100,99,91,29.78,29.55,24,4,28,0.19
2013-5-13,54,49,45,48,37,31,98,65,41,30.03,29.72,26,7,26,0.02
2013-5-14,58,48,44,38,34,31,73,59,38,30.05,29.92,16,4,17,0.00
2013-5-15,61,51,41,47,34,26,98,58,27,30.05,29.71,30,6,30,0.24
2013-5-16,70,56,46,54,48,41,99,77,40,29.81,29.57,28,6,32,0.02
2013-5-17,57,52,49,45,40,37,82,66,51,30.24,29.76,24,6,25,0.00
2013-5-18,53,47,41,41,38,36,91,72,60,30.41,30.19,23,5,23,0.00
2013-5-19,52,47,41,48,43,38,99,85,62,30.47,30.29,21,6,21,0.00
2013-5-20,54,50,47,54,50,47,100,99,96,30.32,29.96,39,6,39,0.65
2013-5-21,51,48,47,49,48,47,100,99,89,30.15,30.02,18,4,18,0.06
2013-5-22,51,48,47,50,48,47,100,100,97,30.12,29.97,20,6,21,0.52
2013-5-23,66,55,46,64,55,46,100,98,92,30.04,29.84,26,6,28,0.02
2013-5-24,65,59,52,64,59,52,100,99,97,29.91,29.70,38,9,42,0.87
2013-5-25,52,51,48,52,51,48,100,100,99,29.88,29.72,19,6,19,0.56
2013-5-26,51,48,46,50,48,44,100,97,88,29.94,29.64,20,5,20,0.40
2013-5-27,62,52,44,44,41,36,95,69,41,30.21,29.90,26,5,26,0.00
2013-5-28,70,56,41,48,39,31,99,59,29,30.30,30.16,23,4,23,0.00
2013-5-29,55,50,48,52,49,37,100,97,53,30.31,30.00,19,5,20,0.40
2013-5-30,81,62,48,65,56,48,100,84,53,30.08,29.95,12,2,12,0.01
2013-5-31,87,73,56,64,60,55,100,67,39,30.09,29.88,18,4,20,0.00
2013-6-1,91,73,58,64,60,54,90,65,39,29.99,29.81,23,4,23,0.00
2013-6-2,84,68,56,67,60,54,94,76,56,29.87,29.71,33,5,33,0.01
2013-6-3,69,63,54,64,59,54,99,88,70,29.88,29.72,22,5,22,0.04
2013-6-4,65,60,55,60,46,39,97,60,42,30.06,29.76,21,5,21,0.00
2013-6-5,70,59,51,48,41,37,69,53,31,30.19,30.00,19,5,19,0.00
2013-6-6,65,58,50,51,44,37,92,61,39,30.28,30.15,18,3,18,0.00
2013-6-7,58,54,51,53,49,43,99,85,62,30.24,30.03,14,4,15,0.29
2013-6-8,61,55,51,58,54,51,100,97,84,30.08,29.65,19,4,20,2.32
2013-6-9,68,58,51,56,53,49,99,85,64,30.18,29.96,13,3,14,0.00
2013-6-10,69,60,54,56,52,49,100,76,51,30.28,30.07,12,3,12,0.00
2013-6-11,56,53,50,54,52,50,100,97,84,30.13,29.55,27,7,28,0.79
2013-6-12,58,54,50,58,54,50,100,99,93,29.76,29.49,18,5,18,0.84
2013-6-13,70,58,52,54,52,49,100,81,54,29.86,29.71,15,4,15,0.07
2013-6-14,59,55,52,53,48,42,95,79,60,29.80,29.69,14,3,14,0.00
2013-6-15,75,63,50,53,46,40,93,57,30,29.92,29.72,19,4,19,0.00
2013-6-16,76,66,55,55,48,42,91,54,34,29.95,29.75,17,4,19,0.00
2013-6-17,78,65,54,61,57,54,99,78,47,29.89,29.72,20,4,20,0.31
2013-6-18,71,63,58,58,53,49,94,71,48,30.00,29.84,15,3,15,0.00
2013-6-19,72,66,56,50,46,41,78,51,36,30.18,29.96,9,4,9,0.00
2013-6-20,75,64,50,54,48,43,94,60,32,30.29,30.12,9,3,9,0.00
2013-6-21,78,66,57,57,53,47,91,66,39,30.28,30.16,9,4,9,0.00
2013-6-22,74,64,57,62,56,52,90,77,58,30.27,30.11,9,2,9,0.00
2013-6-23,75,62,56,64,58,54,98,89,63,30.20,29.97,9,2,9,0.04
2013-6-24,88,74,62,71,66,60,98,76,52,30.01,29.80,9,3,9,0.04
2013-6-25,88,77,67,68,64,59,99,66,41,29.88,29.71,9,3,9,0.17
2013-6-26,71,63,57,69,62,56,100,98,92,29.95,29.72,9,3,9,0.02
2013-6-27,58,54,52,56,53,52,100,99,93,29.99,29.88,9,5,9,0.00
2013-6-28,66,59,55,66,58,55,100,100,100,29.95,29.62,9,4,9,1.93
2013-6-29,73,65,58,71,64,57,100,97,82,29.79,29.61,9,4,9,0.03
2013-6-30,75,67,59,69,65,57,100,92,79,30.01,29.72,9,4,9,0.00
2013-7-1,72,63,56,66,60,56,100,93,77,30.18,29.95,9,2,9,0.01
2013-7-2,66,59,57,66,58,56,100,99,95,30.29,30.13,9,3,9,0.45
2013-7-3,78,64,57,67,60,57,100,89,61,30.25,30.11,9,2,9,0.00
2013-7-4,90,77,63,71,67,62,100,75,48,30.20,30.05,9,3,9,0.00
2013-7-5,91,81,66,72,69,63,94,70,48,30.14,29.98,9,4,9,0.00
2013-7-6,88,80,71,72,69,63,90,69,54,30.05,29.88,9,3,9,0.00
2013-7-7,90,81,71,66,64,61,74,57,40,29.99,29.85,9,4,9,0.00
2013-7-8,79,68,61,66,60,53,90,76,53,30.15,29.90,9,3,9,0.01
2013-7-9,64,61,60,62,59,54,100,94,76,30.21,30.10,9,3,9,0.01
2013-7-10,67,60,58,67,59,57,100,99,94,30.18,29.82,9,5,9,0.01
2013-7-11,76,69,60,72,67,60,100,93,78,30.01,29.78,9,2,9,0.03
2013-7-12,76,70,63,66,59,57,86,69,54,30.22,29.96,9,4,9,0.00
2013-7-13,83,75,66,60,57,53,73,54,40,30.38,30.19,9,3,9,0.00
2013-7-14,90,76,60,66,61,56,92,64,45,30.34,30.16,9,3,9,0.00
2013-7-15,92,84,72,69,66,61,78,56,37,30.22,30.03,9,3,9,0.00
2013-7-16,89,77,69,68,62,54,71,61,46,30.25,30.06,9,4,9,0.00
2013-7-17,80,72,64,67,60,53,95,66,55,30.26,29.89,9,4,9,0.18
2013-7-18,85,75,69,69,63,47,99,70,38,30.06,29.90,9,4,9,0.01
2013-7-19,87,76,64,73,68,61,99,78,58,30.03,29.62,9,4,9,0.02
2013-7-20,90,80,69,72,67,63,94,67,48,29.82,29.58,9,4,9,0.26
2013-7-21,77,68,61,63,56,53,82,66,49,30.11,29.78,9,3,9,0.00
2013-7-22,70,63,57,59,56,53,95,80,59,30.14,29.98,9,3,9,0.00
2013-7-23,65,61,59,65,60,57,100,99,93,30.03,29.55,9,3,9,1.34
2013-7-24,81,68,61,69,64,53,100,86,66,30.01,29.56,9,3,9,0.00
2013-7-25,73,63,56,60,54,50,93,73,52,30.20,29.97,9,4,9,0.00
2013-7-26,65,63,62,65,63,60,100,99,91,30.16,29.84,9,2,9,2.31
2013-7-27,80,69,60,65,62,59,100,81,60,30.12,29.83,9,4,9,0.05
2013-7-28,70,63,58,66,61,56,100,94,79,30.16,30.03,9,3,9,0.33
2013-7-29,69,63,60,65,62,59,100,96,87,30.15,30.01,9,3,9,0.00
2013-7-30,79,68,60,68,62,57,100,84,51,30.12,29.98,9,2,9,0.00
2013-7-31,80,70,61,60,56,53,85,63,47,30.16,30.02,9,3,9,0.00
2013-8-1,74,66,59,64,60,55,96,84,61,30.12,29.96,17,4,17,0.00
2013-8-2,68,64,60,67,63,59,100,99,96,29.99,29.80,15,3,15,0.58
2013-8-3,75,63,55,66,60,55,100,91,65,29.90,29.72,18,2,18,0.04
2013-8-4,79,68,61,60,58,56,89,73,48,29.85,29.70,14,3,14,0.00
2013-8-5,71,63,57,56,53,47,87,70,53,30.04,29.79,19,5,19,0.00
2013-8-6,77,66,55,55,50,47,79,57,42,30.22,30.00,19,4,19,0.00
2013-8-7,76,65,56,59,52,44,90,66,40,30.28,30.16,16,3,16,0.00
2013-8-8,68,63,59,66,61,56,99,94,87,30.23,30.06,15,4,15,0.19
2013-8-9,71,68,63,70,67,62,100,98,93,30.12,29.69,38,6,38,1.73
2013-8-10,80,72,63,70,59,49,100,69,36,30.02,29.69,18,4,19,0.01
2013-8-11,78,67,58,53,52,48,78,59,42,30.08,29.96,18,5,18,0.00
2013-8-12,80,69,59,59,56,53,91,65,43,30.05,29.90,16,3,17,0.00
2013-8-13,75,62,58,66,60,56,100,93,69,29.98,29.74,14,3,14,0.00
2013-8-14,74,63,58,65,59,48,100,88,62,29.87,29.61,20,4,20,0.00
2013-8-15,76,65,56,53,51,49,81,62,42,30.14,29.83,18,5,18,0.00
2013-8-16,76,65,55,58,54,50,99,72,45,30.26,30.07,16,2,16,0.00
2013-8-17,79,66,55,60,55,50,100,72,43,30.33,30.20,15,3,15,0.00
2013-8-18,78,67,58,60,56,50,89,69,47,30.34,30.05,15,3,15,0.00
2013-8-19,83,72,59,64,61,57,97,70,51,30.09,29.85,15,3,15,0.00
2013-8-20,83,74,66,65,62,58,85,67,50,30.12,29.93,12,3,12,0.00
2013-8-21,86,76,63,64,61,57,84,60,46,30.18,30.00,17,4,17,0.00
2013-8-22,85,75,61,68,63,58,94,68,46,30.05,29.75,18,4,19,0.00
2013-8-23,75,67,58,67,58,50,92,74,49,30.19,29.74,17,5,17,0.00
2013-8-24,75,64,53,53,49,45,85,61,36,30.36,30.15,13,3,13,0.00
2013-8-25,79,65,54,56,51,46,94,64,34,30.41,30.18,13,3,13,0.00
2013-8-26,75,66,60,64,58,47,91,77,49,30.22,29.87,17,2,17,0.03
2013-8-27,81,68,60,66,62,58,98,84,61,29.98,29.85,14,2,14,0.00
2013-8-28,71,62,58,65,60,57,100,94,78,30.07,29.90,17,4,17,0.02
2013-8-29,66,62,57,63,58,54,98,88,73,30.19,30.02,15,4,16,0.08
2013-8-30,72,62,52,62,56,51,99,84,66,30.07,29.80,13,3,13,0.00
2013-8-31,71,64,60,66,63,59,100,95,80,29.92,29.78,19,4,19,0.16
2013-9-1,79,68,61,71,65,61,100,93,69,30.02,29.78,13,3,13,0.04
2013-9-2,64,61,60,63,61,59,100,100,100,30.06,29.78,17,4,17,2.21
2013-9-3,76,66,61,70,64,60,100,98,81,29.84,29.72,12,2,12,1.07
2013-9-4,78,69,62,66,61,56,100,79,49,29.94,29.74,11,2,15,0.00
2013-9-5,65,59,51,58,51,40,99,76,41,30.17,29.88,14,2,14,0.45
2013-9-6,67,57,46,49,42,37,89,61,37,30.26,30.05,16,3,16,0.00
2013-9-7,72,65,57,57,51,47,82,63,43,30.11,29.80,15,4,15,0.00
2013-9-8,64,59,49,59,51,41,98,78,55,30.08,29.69,23,5,26,0.27
2013-9-9,64,56,46,53,43,38,80,64,44,30.24,30.03,18,4,18,0.00
2013-9-10,66,61,57,60,56,51,100,84,75,30.19,30.07,20,5,20,0.00
2013-9-11,81,69,57,72,64,57,100,85,69,30.13,29.90,22,3,24,0.00
2013-9-12,77,68,62,70,66,59,99,92,71,30.06,29.69,26,5,28,0.26
2013-9-13,67,63,59,66,63,59,100,100,98,29.75,29.60,20,2,26,0.32
2013-9-14,70,62,56,60,58,54,100,87,68,30.06,29.68,14,3,14,0.01
2013-9-15,66,59,52,54,50,47,97,75,53,30.18,30.00,15,3,16,0.00
2013-9-16,63,56,46,56,51,35,97,83,66,30.28,29.96,24,4,24,0.00
2013-9-17,63,52,41,47,42,35,85,69,49,30.42,30.24,13,4,15,0.00
2013-9-18,70,60,48,49,45,41,91,60,36,30.34,30.08,22,4,22,0.00
2013-9-19,76,63,51,53,49,43,92,61,40,30.17,30.00,18,3,18,0.00
2013-9-20,72,61,52,54,52,44,95,74,48,30.17,30.03,17,4,17,0.00
2013-9-21,66,59,54,60,57,54,100,94,77,30.12,29.85,28,6,28,0.00
2013-9-22,66,63,56,64,60,51,99,94,79,29.90,29.63,34,9,34,1.03
2013-9-23,56,52,47,51,44,41,88,76,64,29.93,29.71,21,6,22,0.00
2013-9-24,52,50,46,47,44,41,93,79,70,29.92,29.79,18,4,18,0.05
2013-9-25,60,53,50,49,47,45,89,80,65,30.01,29.82,18,6,18,0.01
2013-9-26,61,54,49,52,49,47,92,83,68,30.17,29.96,21,6,21,0.00
2013-9-27,70,59,53,54,52,50,96,79,51,30.30,30.13,11,3,11,0.00
2013-9-28,68,57,48,54,51,47,100,83,57,30.41,30.25,11,2,11,0.00
2013-9-29,69,55,45,54,48,43,98,80,44,30.34,30.14,10,2,10,0.00
2013-9-30,60,53,48,53,51,48,100,93,75,30.20,29.97,11,2,11,0.00
2013-10-1,74,59,53,57,52,48,99,80,41,30.03,29.79,13,2,13,0.00
2013-10-2,77,64,52,60,55,48,100,75,51,29.92,29.71,15,3,15,0.00
2013-10-3,73,65,58,49,46,41,65,50,38,30.12,29.87,22,4,22,0.00
2013-10-4,70,60,52,50,46,41,85,60,41,30.16,30.02,10,2,10,0.00
2013-10-5,62,55,48,47,43,39,84,67,48,30.23,30.09,10,2,10,0.00
2013-10-6,56,51,46,48,38,33,92,62,47,30.37,30.18,15,4,15,0.04
2013-10-7,63,56,47,62,55,45,100,96,89,30.32,29.84,34,10,38,0.11
2013-10-8,64,56,47,64,47,37,100,72,50,30.45,29.83,33,5,33,0.31
2013-10-9,61,50,42,43,40,37,90,69,46,30.56,30.38,14,2,14,0.00
2013-10-10,64,52,44,48,44,39,94,75,46,30.43,30.21,10,2,10,0.00
2013-10-11,72,55,46,53,49,41,95,81,49,30.29,30.14,17,2,18,0.00
2013-10-12,57,51,44,53,46,41,96,84,63,30.50,30.24,14,4,14,0.00
2013-10-13,56,49,42,48,43,40,99,81,60,30.54,30.39,14,3,14,0.00
2013-10-14,61,54,47,48,44,41,86,73,53,30.45,30.26,12,3,12,0.00
2013-10-15,64,56,51,53,50,47,96,83,62,30.36,30.24,14,2,14,0.00
2013-10-16,56,54,51,55,53,50,100,98,92,30.30,29.90,16,3,17,0.16
2013-10-17,62,55,51,56,54,51,100,97,83,29.96,29.78,15,2,15,0.00
2013-10-18,64,56,50,62,52,45,100,87,66,29.86,29.58,22,5,22,0.22
2013-10-19,62,55,49,50,43,39,87,66,44,29.99,29.80,16,4,16,0.00
2013-10-20,63,56,50,55,44,31,99,68,36,29.98,29.68,18,5,18,0.01
2013-10-21,60,52,45,47,37,32,82,59,39,30.12,29.92,22,4,22,0.00
2013-10-22,58,55,48,54,50,43,94,84,75,30.08,29.71,30,6,30,0.01
2013-10-23,53,47,41,43,37,29,93,70,45,29.83,29.58,13,2,13,0.00
2013-10-24,48,45,39,39,31,24,79,59,39,29.82,29.57,20,4,20,0.00
2013-10-25,51,44,39,35,32,29,79,62,46,30.09,29.78,19,5,19,0.00
2013-10-26,50,44,36,41,34,24,92,68,42,30.17,29.90,24,5,24,0.06
2013-10-27,54,47,41,43,39,31,96,76,58,30.01,29.79,17,4,17,0.06
2013-10-28,55,45,36,40,33,28,75,61,47,30.36,29.99,30,6,31,0.00
2013-10-29,47,37,30,29,26,21,81,63,34,30.51,30.31,16,3,16,0.00
2013-10-30,48,39,33,36,30,23,95,70,37,30.40,30.16,13,2,13,0.00
2013-10-31,59,46,32,57,41,28,98,83,60,30.32,29.82,32,7,32,0.35
2013-11-1,64,61,58,62,58,53,97,89,73,29.87,29.39,48,13,48,0.84
2013-11-2,62,56,48,54,47,42,85,73,51,29.81,29.52,21,4,21,0.00
2013-11-3,48,38,33,42,26,18,89,60,41,30.42,29.76,25,9,25,0.03
2013-11-4,40,35,30,24,22,18,66,56,43,30.76,30.36,20,7,21,0.00
2013-11-5,45,39,29,36,31,23,88,72,58,30.78,30.52,16,2,16,0.00
2013-11-6,53,48,39,49,42,35,88,81,75,30.58,30.00,29,5,29,0.00
2013-11-7,59,53,40,56,49,33,97,88,75,30.06,29.63,32,9,32,0.21
2013-11-8,43,39,35,35,27,24,79,62,48,29.95,29.71,21,5,21,0.00
2013-11-9,41,37,32,26,24,21,69,57,43,30.16,29.90,22,6,22,0.00
2013-11-10,48,41,33,44,37,24,98,85,65,30.13,29.67,28,4,28,0.08
2013-11-11,47,40,37,39,33,29,97,76,58,30.02,29.69,24,5,24,0.00
2013-11-12,47,35,27,39,24,16,82,63,55,30.08,29.82,27,8,27,0.00
2013-11-13,28,26,25,18,16,16,69,65,62,30.19,30.01,24,7,24,0.04
2013-11-21,68,68,68,38,38,38,33,33,33,30.52,30.51,2,0,1,0.01
2013-11-22,71,49,38,43,30,26,64,50,25,30.11,30.02,2,0,2,0.02
2013-11-23,39,32,27,21,17,14,66,52,39,29.77,29.64,16,3,16,0.09
2013-11-24,27,22,18,18,9,4,68,53,42,29.96,29.61,20,3,26,0.10
2013-11-25,28,20,15,16,6,0,77,49,29,30.37,29.91,11,1,11,0.02
2013-11-26,34,30,21,32,26,14,96,85,63,30.39,30.21,6,0,6,0.06
2013-11-27,57,49,32,57,49,31,100,99,96,30.28,29.17,15,2,16,2.55
2013-11-28,41,30,19,41,22,8,99,72,46,30.42,29.28,12,2,12,0.04
2013-11-29,24,18,11,14,10,8,88,68,49,30.77,30.36,4,0,7,0.00
2013-11-30,33,17,6,29,14,8,96,81,50,30.86,30.45,6,0,6,0.00
2013-12-1,39,35,33,39,35,28,100,95,77,30.52,30.16,8,0,8,0.22
2013-12-2,43,38,34,43,38,33,100,100,98,30.19,29.96,9,1,9,0.20
2013-12-3,39,37,35,39,37,33,100,99,93,30.03,29.82,10,1,10,0.01
2013-12-4,42,34,24,33,29,24,98,83,64,30.27,29.84,12,1,12,0.00
2013-12-5,49,35,21,49,35,21,100,98,91,30.37,29.97,4,0,4,0.05
2013-12-6,49,43,36,49,43,32,100,98,88,30.16,29.88,6,0,6,0.14
2013-12-7,35,31,23,32,21,11,98,67,48,30.43,30.08,10,1,10,0.01
2013-12-8,26,20,13,18,11,8,92,64,45,30.65,30.38,11,1,11,0.00
2013-12-9,34,26,19,35,20,8,100,80,50,30.65,29.84,11,2,11,0.00
2013-12-10,34,28,18,35,27,14,100,93,71,29.94,29.74,8,0,8,0.00
2013-12-11,28,19,7,18,14,4,96,78,58,30.16,29.89,8,0,8,0.00
2013-12-12,13,9,2,11,3,-6,95,72,45,30.28,29.98,8,0,9,0.00
2013-12-13,23,14,2,14,4,-6,86,60,39,30.42,29.87,11,1,11,0.00
2013-12-14,10,4,-4,0,-5,-13,73,60,43,30.69,30.37,5,0,6,0.00
2013-12-15,25,14,8,26,14,0,97,92,58,30.50,29.34,9,1,10,0.00
2013-12-16,21,11,1,18,6,-6,96,76,45,30.25,29.62,12,1,12,0.00
2013-12-17,14,4,-14,11,-1,-13,93,76,64,30.38,30.06,4,0,4,0.00
2013-12-18,33,16,2,32,16,4,97,93,87,30.11,29.81,6,0,6,1.58
2013-12-19,32,24,1,29,22,4,97,91,83,30.16,29.94,7,1,7,0.00
2013-12-20,34,29,20,35,29,18,100,97,93,30.24,29.96,5,0,5,0.08
2013-12-21,33,31,27,33,31,28,100,100,100,30.07,29.88,8,1,8,0.03
2013-12-22,32,31,29,32,31,29,100,100,100,30.11,29.93,12,1,13,0.00
2013-12-23,32,31,28,32,31,28,100,100,100,30.20,30.00,5,0,5,0.02
2013-12-24,32,22,10,32,22,8,100,95,91,30.22,30.06,0,0,0,0.00
2013-12-25,17,8,-1,16,7,0,93,90,88,30.62,30.14,0,0,0,0.00
2013-12-26,28,17,-1,28,18,0,100,96,91,30.60,30.06,0,0,0,0.00
2013-12-27,28,20,7,28,20,8,99,96,93,30.25,30.08,0,0,4,0.00
2013-12-28,34,23,8,35,24,8,100,98,95,30.23,29.96,5,0,5,0.00
2013-12-29,34,31,25,35,31,26,100,100,100,30.13,29.53,9,0,9,0.00
2013-12-30,32,19,3,32,18,0,100,94,83,30.23,29.49,12,0,13,0.00
2013-12-31,8,2,-6,4,0,-6,90,86,76,30.25,30.02,0,0,0,0.00
2014-1-1,19,3,-10,16,3,-6,93,85,74,30.50,30.11,0,0,0,0.00
2014-1-2,0,-5,-7,-6,-8,-13,88,81,73,30.57,30.03,0,0,0,0.00